Skip Page Navigation
NASA JPL Caltech
NASA Logo - Jet Propulsion Laboratory + View the NASA Portal
+ Center for Near-Earth Object Studies
JPL Home Earth Solar System Stars & Galaxies Technology
JPL Solar System Dynamics
BODIES ORBITS EPHEMERIDES TOOLS PHYSICAL DATA DISCOVERY FAQ SITE MAP
JPL Small-Body Database Browser
Search: [ help ]  
17120 (1999 JP60)
Classification: Main-belt Asteroid          SPK-ID: 2017120
Ephemeris | Orbit Diagram | Orbital Elements | Mission Design | Physical Parameters | Discovery Circumstances ]

[ show orbit diagram ]
Orbital Elements at Epoch 2459000.5 (2020-May-31.0) TDB
Reference: JPL 20 (heliocentric ecliptic J2000)
 Element Value Uncertainty (1-sigma)   Units 
e .06589591821098996 7.0672e-08  
a 2.897829832756823 1.6528e-08 au
q 2.706874675108113 2.0259e-07 au
i 3.450283050373509 4.1322e-06 deg
node 106.1938032001156 0.00012583 deg
peri 232.9592187158219 0.00013062 deg
M 5.59759793522745 3.6819e-05 deg
tp 2458972.483947312851
(2020-May-02.98394731)
0.0001842 TDB
period 1801.8048248697
4.93
1.5415e-05
4.22e-08
d
yr
n .1997996647755862 1.7093e-09 deg/d
Q 3.088784990405534 1.7617e-08 au
  Orbit Determination Parameters
   # obs. used (total)      1294  
   data-arc span      13237 days (36.24 yr)  
   first obs. used      1984-05-07  
   last obs. used      2020-08-03  
   planetary ephem.      DE431  
   SB-pert. ephem.      SB431-N16  
   condition code      0  
   norm. resid. RMS      .55912  
   source      ORB  
   producer      Otto Matic  
   solution date      2020-Aug-25 01:11:05  

Additional Information
 Earth MOID = 1.69932 au 
 Jupiter MOID = 2.17358 au 
 T_jup = 3.282 
[ show covariance matrix ]

Ephemeris | Orbit Diagram | Orbital Elements | Mission Design | Physical Parameters | Discovery Circumstances ]

Physical Parameter Table
Parameter Symbol Value Units Sigma Reference Notes
absolute magnitude H 13.4   n/a MPO347658  
diameter diameter 6.816 km 0.234 urn:nasa:pds:neowise_diameters_albedos::2.0[mainbelt] (http://adsabs.harvard.edu/abs/2011ApJ...741...68M)  
geometric albedo albedo 0.288   0.024 urn:nasa:pds:neowise_diameters_albedos::2.0[mainbelt] (http://adsabs.harvard.edu/abs/2011ApJ...741...68M)  

17120 (1999 JP60)          Discovered 1999-May-10 by LINEAR at Socorro
Reference: 20000913/Numbers.arcLast Updated: 2004-04-19

Alternate Designations
 1999 JP60 = 1984 JH = 1986 WU1 = 1993 CB2 = 1998 FS119 
Ephemeris | Orbit Diagram | Orbital Elements | Mission Design | Physical Parameters | Discovery Circumstances ]
ABOUT SSD CREDITS/AWARDS PRIVACY/COPYRIGHT GLOSSARY LINKS
FirstGov 2020-Oct-30 11:39 UT
(server date/time)  
NASA Home Page
Site Manager:   Ryan S. Park
Webmaster  Alan B. Chamberlin